Time,TemperatureF,DewpointF,PressureIn,WindDirection,WindDirectionDegrees,WindSpeedMPH,WindSpeedGustMPH,Humidity,HourlyPrecipIn,Conditions,Clouds,dailyrainin,SoftwareType,DateUTC
2013-05-26 00:01:00,64.0,55.1,30.02,SSE,158,0.0,0.0,73,0.00,,,0.00,Weather View 32 v70,2013-05-26 04:01:00,
2013-05-26 00:06:00,64.0,55.5,30.02,SSE,158,0.0,0.0,74,0.00,,,0.00,Weather View 32 v70,2013-05-26 04:06:00,
2013-05-26 00:11:00,64.0,55.9,30.02,East,90,0.0,0.0,75,0.00,,,0.00,Weather View 32 v70,2013-05-26 04:11:00,
2013-05-26 00:16:00,64.0,55.9,30.02,East,90,0.0,0.0,75,0.00,,,0.00,Weather View 32 v70,2013-05-26 04:16:00,
2013-05-26 00:21:00,64.0,56.3,30.03,ENE,68,0.0,0.0,76,0.00,,,0.00,Weather View 32 v70,2013-05-26 04:21:00,
2013-05-26 00:26:00,63.0,55.7,30.03,NNW,338,3.0,0.0,77,0.00,,,0.00,Weather View 32 v70,2013-05-26 04:26:00,
2013-05-26 00:31:00,63.0,55.7,30.03,ENE,68,0.0,3.0,77,0.00,,,0.00,Weather View 32 v70,2013-05-26 04:31:00,
2013-05-26 00:36:00,63.0,56.0,30.04,ENE,68,0.0,3.0,78,0.00,,,0.00,Weather View 32 v70,2013-05-26 04:36:00,
2013-05-26 00:41:00,63.0,56.4,30.04,ENE,68,0.0,3.0,79,0.00,,,0.00,Weather View 32 v70,2013-05-26 04:41:00,
2013-05-26 00:46:00,62.0,55.4,30.04,ENE,68,0.0,3.0,79,0.00,,,0.00,Weather View 32 v70,2013-05-26 04:46:00,
2013-05-26 00:51:00,62.0,55.7,30.04,East,90,0.0,3.0,80,0.00,,,0.00,Weather View 32 v70,2013-05-26 04:51:00,
2013-05-26 00:56:00,62.0,56.1,30.04,East,90,0.0,3.0,81,0.00,,,0.00,Weather View 32 v70,2013-05-26 04:56:00,
2013-05-26 01:01:00,62.0,56.1,30.04,East,90,0.0,3.0,81,0.00,,,0.00,Weather View 32 v70,2013-05-26 05:01:00,
2013-05-26 01:06:00,63.0,57.1,30.04,ENE,68,0.0,3.0,81,0.00,,,0.00,Weather View 32 v70,2013-05-26 05:06:00,
2013-05-26 01:11:00,63.0,56.7,30.04,ENE,68,0.0,3.0,80,0.00,,,0.00,Weather View 32 v70,2013-05-26 05:11:00,
2013-05-26 01:16:00,63.0,56.4,30.04,ENE,68,0.0,3.0,79,0.00,,,0.00,Weather View 32 v70,2013-05-26 05:16:00,
2013-05-26 01:21:00,63.0,55.7,30.04,ENE,68,0.0,3.0,77,0.00,,,0.00,Weather View 32 v70,2013-05-26 05:21:00,
2013-05-26 01:26:00,64.0,56.6,30.04,ENE,68,0.0,3.0,77,0.00,,,0.00,Weather View 32 v70,2013-05-26 05:26:00,
2013-05-26 01:31:00,64.0,54.4,30.04,ENE,68,1.0,4.0,71,0.00,,,0.00,Weather View 32 v70,2013-05-26 05:31:00,
2013-05-26 01:36:00,64.0,53.6,30.04,ENE,68,2.0,5.0,69,0.00,,,0.00,Weather View 32 v70,2013-05-26 05:36:00,
2013-05-26 01:41:00,65.0,54.2,30.04,ENE,68,1.0,5.0,68,0.00,,,0.00,Weather View 32 v70,2013-05-26 05:41:00,
2013-05-26 01:46:00,65.0,53.7,30.04,ENE,68,0.0,5.0,67,0.00,,,0.00,Weather View 32 v70,2013-05-26 05:46:00,
2013-05-26 01:51:00,65.0,52.9,30.04,North,0,1.0,5.0,65,0.00,,,0.00,Weather View 32 v70,2013-05-26 05:51:00,
2013-05-26 01:56:00,65.0,52.1,30.04,ENE,68,0.0,5.0,63,0.00,,,0.00,Weather View 32 v70,2013-05-26 05:56:00,
2013-05-26 02:01:00,65.0,51.6,30.04,ENE,68,1.0,5.0,62,0.00,,,0.00,Weather View 32 v70,2013-05-26 06:01:00,
2013-05-26 02:06:00,65.0,50.7,30.04,ENE,68,5.0,5.0,60,0.00,,,0.00,Weather View 32 v70,2013-05-26 06:06:00,
2013-05-26 02:11:00,66.0,51.2,30.04,ENE,68,2.0,5.0,59,0.00,,,0.00,Weather View 32 v70,2013-05-26 06:11:00,
2013-05-26 02:16:00,66.0,50.3,30.04,North,0,3.0,6.0,57,0.00,,,0.00,Weather View 32 v70,2013-05-26 06:16:00,
2013-05-26 02:21:00,66.0,49.8,30.04,ENE,68,3.0,6.0,56,0.00,,,0.00,Weather View 32 v70,2013-05-26 06:21:00,
2013-05-26 02:26:00,66.0,48.8,30.04,ENE,68,3.0,7.0,54,0.00,,,0.00,Weather View 32 v70,2013-05-26 06:26:00,
2013-05-26 02:31:00,66.0,47.8,30.04,ENE,68,3.0,8.0,52,0.00,,,0.00,Weather View 32 v70,2013-05-26 06:31:00,
2013-05-26 02:36:00,66.0,47.3,30.04,ENE,68,3.0,8.0,51,0.00,,,0.00,Weather View 32 v70,2013-05-26 06:36:00,
2013-05-26 02:42:00,66.0,47.3,30.04,ENE,68,5.0,8.0,51,0.00,,,0.00,Weather View 32 v70,2013-05-26 06:42:00,
2013-05-26 02:47:00,66.0,46.2,30.04,North,0,1.0,8.0,49,0.00,,,0.00,Weather View 32 v70,2013-05-26 06:47:00,
2013-05-26 02:52:00,66.0,45.7,30.04,ENE,68,3.0,8.0,48,0.00,,,0.00,Weather View 32 v70,2013-05-26 06:52:00,
2013-05-26 02:57:00,66.0,45.1,30.04,North,0,2.0,8.0,47,0.00,,,0.00,Weather View 32 v70,2013-05-26 06:57:00,
2013-05-26 03:02:00,66.0,45.7,30.04,East,90,3.0,8.0,48,0.00,,,0.00,Weather View 32 v70,2013-05-26 07:02:00,
2013-05-26 03:07:00,66.0,45.1,30.04,North,0,3.0,8.0,47,0.00,,,0.00,Weather View 32 v70,2013-05-26 07:07:00,
2013-05-26 03:12:00,66.0,45.1,30.04,East,90,1.0,8.0,47,0.00,,,0.00,Weather View 32 v70,2013-05-26 07:12:00,
2013-05-26 03:17:00,66.0,44.6,30.04,ENE,68,1.0,8.0,46,0.00,,,0.00,Weather View 32 v70,2013-05-26 07:17:00,
2013-05-26 03:22:00,66.0,45.1,30.04,East,90,3.0,8.0,47,0.00,,,0.00,Weather View 32 v70,2013-05-26 07:22:00,
2013-05-26 03:27:00,66.0,45.1,30.04,ENE,68,2.0,8.0,47,0.00,,,0.00,Weather View 32 v70,2013-05-26 07:27:00,
2013-05-26 03:32:00,66.0,44.6,30.04,ENE,68,3.0,8.0,46,0.00,,,0.00,Weather View 32 v70,2013-05-26 07:32:00,
2013-05-26 03:37:00,66.0,44.6,30.04,ENE,68,2.0,10.0,46,0.00,,,0.00,Weather View 32 v70,2013-05-26 07:37:00,
2013-05-26 03:42:00,66.0,44.6,30.04,ENE,68,2.0,10.0,46,0.00,,,0.00,Weather View 32 v70,2013-05-26 07:42:00,
2013-05-26 03:47:00,66.0,44.6,30.04,ENE,68,2.0,10.0,46,0.00,,,0.00,Weather View 32 v70,2013-05-26 07:47:00,
2013-05-26 03:52:00,66.0,44.6,30.03,ENE,68,6.0,10.0,46,0.00,,,0.00,Weather View 32 v70,2013-05-26 07:52:00,
2013-05-26 03:57:00,66.0,45.1,30.04,ENE,68,1.0,10.0,47,0.00,,,0.00,Weather View 32 v70,2013-05-26 07:57:00,
2013-05-26 04:02:00,66.0,45.7,30.04,ENE,68,3.0,10.0,48,0.00,,,0.00,Weather View 32 v70,2013-05-26 08:02:00,
2013-05-26 04:07:00,66.0,45.1,30.04,ENE,68,3.0,10.0,47,0.00,,,0.00,Weather View 32 v70,2013-05-26 08:07:00,
2013-05-26 04:12:00,65.0,44.2,30.04,ENE,68,1.0,10.0,47,0.00,,,0.00,Weather View 32 v70,2013-05-26 08:12:00,
2013-05-26 04:17:00,65.0,44.8,30.03,East,90,3.0,10.0,48,0.00,,,0.00,Weather View 32 v70,2013-05-26 08:17:00,
2013-05-26 04:22:00,65.0,45.3,30.04,ENE,68,1.0,10.0,49,0.00,,,0.00,Weather View 32 v70,2013-05-26 08:22:00,
2013-05-26 04:27:00,65.0,45.3,30.05,ENE,68,1.0,10.0,49,0.00,,,0.00,Weather View 32 v70,2013-05-26 08:27:00,
2013-05-26 04:32:00,65.0,45.3,30.05,ENE,68,4.0,10.0,49,0.00,,,0.00,Weather View 32 v70,2013-05-26 08:32:00,
2013-05-26 04:37:00,65.0,45.9,30.05,North,0,1.0,8.0,50,0.00,,,0.00,Weather View 32 v70,2013-05-26 08:37:00,
2013-05-26 04:42:00,65.0,46.4,30.05,ENE,68,3.0,8.0,51,0.00,,,0.00,Weather View 32 v70,2013-05-26 08:42:00,
2013-05-26 04:47:00,64.0,44.9,30.05,ENE,68,4.0,8.0,50,0.00,,,0.00,Weather View 32 v70,2013-05-26 08:47:00,
2013-05-26 04:52:00,64.0,45.5,30.05,ENE,68,4.0,8.0,51,0.00,,,0.00,Weather View 32 v70,2013-05-26 08:52:00,
2013-05-26 04:57:00,64.0,44.9,30.06,ENE,68,5.0,8.0,50,0.00,,,0.00,Weather View 32 v70,2013-05-26 08:57:00,
2013-05-26 05:02:00,64.0,44.9,30.06,ENE,68,6.0,8.0,50,0.00,,,0.00,Weather View 32 v70,2013-05-26 09:02:00,
2013-05-26 05:07:00,64.0,44.9,30.06,ENE,68,5.0,8.0,50,0.00,,,0.00,Weather View 32 v70,2013-05-26 09:07:00,
2013-05-26 05:12:00,64.0,46.0,30.06,SSE,158,3.0,8.0,52,0.00,,,0.00,Weather View 32 v70,2013-05-26 09:12:00,
2013-05-26 05:17:00,64.0,46.0,30.06,ENE,68,5.0,8.0,52,0.00,,,0.00,Weather View 32 v70,2013-05-26 09:17:00,
2013-05-26 05:22:00,64.0,45.5,30.06,ENE,68,5.0,8.0,51,0.00,,,0.00,Weather View 32 v70,2013-05-26 09:22:00,
2013-05-26 05:27:00,64.0,46.0,30.06,ENE,68,3.0,8.0,52,0.00,,,0.00,Weather View 32 v70,2013-05-26 09:27:00,
2013-05-26 05:32:00,63.0,45.1,30.07,ENE,68,1.0,8.0,52,0.00,,,0.00,Weather View 32 v70,2013-05-26 09:32:00,
2013-05-26 05:37:00,63.0,45.1,30.07,ENE,68,2.0,8.0,52,0.00,,,0.00,Weather View 32 v70,2013-05-26 09:37:00,
2013-05-26 05:42:00,63.0,45.1,30.07,ENE,68,2.0,8.0,52,0.00,,,0.00,Weather View 32 v70,2013-05-26 09:42:00,
2013-05-26 05:47:00,63.0,45.1,30.07,ENE,68,6.0,8.0,52,0.00,,,0.00,Weather View 32 v70,2013-05-26 09:47:00,
2013-05-26 05:52:00,63.0,45.1,30.07,ENE,68,3.0,8.0,52,0.00,,,0.00,Weather View 32 v70,2013-05-26 09:52:00,
2013-05-26 05:57:00,63.0,45.1,30.07,East,90,3.0,8.0,52,0.00,,,0.00,Weather View 32 v70,2013-05-26 09:57:00,
2013-05-26 06:02:00,63.0,45.6,30.08,ENE,68,2.0,8.0,53,0.00,,,0.00,Weather View 32 v70,2013-05-26 10:02:00,
2013-05-26 06:07:00,63.0,45.6,30.08,ENE,68,3.0,8.0,53,0.00,,,0.00,Weather View 32 v70,2013-05-26 10:07:00,
2013-05-26 06:12:00,63.0,45.1,30.08,ENE,68,1.0,8.0,52,0.00,,,0.00,Weather View 32 v70,2013-05-26 10:12:00,
2013-05-26 06:17:00,63.0,45.6,30.09,ENE,68,1.0,8.0,53,0.00,,,0.00,Weather View 32 v70,2013-05-26 10:17:00,
2013-05-26 06:22:00,63.0,45.6,30.09,ENE,68,2.0,8.0,53,0.00,,,0.00,Weather View 32 v70,2013-05-26 10:22:00,
2013-05-26 06:27:00,63.0,46.1,30.10,ENE,68,0.0,8.0,54,0.00,,,0.00,Weather View 32 v70,2013-05-26 10:27:00,
2013-05-26 06:32:00,63.0,46.1,30.10,ENE,68,2.0,7.0,54,0.00,,,0.00,Weather View 32 v70,2013-05-26 10:32:00,
2013-05-26 06:37:00,63.0,45.6,30.10,ENE,68,1.0,7.0,53,0.00,,,0.00,Weather View 32 v70,2013-05-26 10:37:00,
2013-05-26 06:42:00,63.0,46.1,30.10,ENE,68,1.0,7.0,54,0.00,,,0.00,Weather View 32 v70,2013-05-26 10:42:00,
2013-05-26 06:47:00,63.0,46.1,30.10,ENE,68,3.0,7.0,54,0.00,,,0.00,Weather View 32 v70,2013-05-26 10:47:00,
2013-05-26 06:52:00,63.0,46.1,30.11,East,90,0.0,7.0,54,0.00,,,0.00,Weather View 32 v70,2013-05-26 10:52:00,
2013-05-26 06:57:00,63.0,46.1,30.11,ENE,68,3.0,7.0,54,0.00,,,0.00,Weather View 32 v70,2013-05-26 10:57:00,
2013-05-26 07:02:00,63.0,46.1,30.11,ENE,68,1.0,7.0,54,0.00,,,0.00,Weather View 32 v70,2013-05-26 11:02:00,
2013-05-26 07:07:00,63.0,47.0,30.11,East,90,0.0,7.0,56,0.00,,,0.00,Weather View 32 v70,2013-05-26 11:07:00,
2013-05-26 07:12:00,63.0,47.5,30.11,ENE,68,4.0,7.0,57,0.00,,,0.00,Weather View 32 v70,2013-05-26 11:12:00,
2013-05-26 07:17:00,63.0,47.5,30.11,ENE,68,3.0,7.0,57,0.00,,,0.00,Weather View 32 v70,2013-05-26 11:17:00,
2013-05-26 07:22:00,63.0,48.0,30.12,ENE,68,3.0,7.0,58,0.00,,,0.00,Weather View 32 v70,2013-05-26 11:22:00,
2013-05-26 07:27:00,62.0,47.5,30.11,ENE,68,2.0,7.0,59,0.00,,,0.00,Weather View 32 v70,2013-05-26 11:27:00,
2013-05-26 07:32:00,62.0,47.5,30.11,ENE,68,1.0,7.0,59,0.00,,,0.00,Weather View 32 v70,2013-05-26 11:32:00,
2013-05-26 07:37:00,62.0,47.9,30.12,North,0,3.0,7.0,60,0.00,,,0.00,Weather View 32 v70,2013-05-26 11:37:00,
2013-05-26 07:42:00,62.0,47.9,30.12,East,90,2.0,7.0,60,0.00,,,0.00,Weather View 32 v70,2013-05-26 11:42:00,
2013-05-26 07:47:00,63.0,49.3,30.12,ENE,68,3.0,7.0,61,0.00,,,0.00,Weather View 32 v70,2013-05-26 11:47:00,
2013-05-26 07:52:00,63.0,48.9,30.12,East,90,1.0,7.0,60,0.00,,,0.00,Weather View 32 v70,2013-05-26 11:52:00,
2013-05-26 07:57:00,63.0,49.7,30.13,East,90,5.0,7.0,62,0.00,,,0.00,Weather View 32 v70,2013-05-26 11:57:00,
2013-05-26 08:02:00,63.0,48.9,30.13,ENE,68,3.0,6.0,60,0.00,,,0.00,Weather View 32 v70,2013-05-26 12:02:00,
2013-05-26 08:07:00,63.0,48.9,30.12,East,90,2.0,6.0,60,0.00,,,0.00,Weather View 32 v70,2013-05-26 12:07:00,
2013-05-26 08:12:00,63.0,48.9,30.13,East,90,3.0,6.0,60,0.00,,,0.00,Weather View 32 v70,2013-05-26 12:12:00,
2013-05-26 08:17:00,63.0,49.3,30.12,East,90,3.0,6.0,61,0.00,,,0.00,Weather View 32 v70,2013-05-26 12:17:00,
2013-05-26 08:22:00,63.0,48.9,30.12,ENE,68,5.0,6.0,60,0.00,,,0.00,Weather View 32 v70,2013-05-26 12:22:00,
2013-05-26 08:27:00,63.0,48.9,30.12,East,90,3.0,10.0,60,0.00,,,0.00,Weather View 32 v70,2013-05-26 12:27:00,
2013-05-26 08:32:00,63.0,48.4,30.13,ENE,68,3.0,10.0,59,0.00,,,0.00,Weather View 32 v70,2013-05-26 12:32:00,
2013-05-26 08:37:00,63.0,48.9,30.13,East,90,0.0,10.0,60,0.00,,,0.00,Weather View 32 v70,2013-05-26 12:37:00,
2013-05-26 08:42:00,64.0,49.3,30.13,ENE,68,0.0,10.0,59,0.00,,,0.00,Weather View 32 v70,2013-05-26 12:42:00,
2013-05-26 08:47:00,64.0,49.8,30.13,North,0,2.0,10.0,60,0.00,,,0.00,Weather View 32 v70,2013-05-26 12:47:00,
2013-05-26 08:52:00,64.0,49.8,30.14,ENE,68,3.0,10.0,60,0.00,,,0.00,Weather View 32 v70,2013-05-26 12:52:00,
2013-05-26 08:57:00,64.0,49.3,30.14,ENE,68,1.0,10.0,59,0.00,,,0.00,Weather View 32 v70,2013-05-26 12:57:00,
2013-05-26 09:02:00,64.0,49.8,30.14,North,0,1.0,10.0,60,0.00,,,0.00,Weather View 32 v70,2013-05-26 13:02:00,
2013-05-26 09:07:00,65.0,51.2,30.14,North,0,1.0,10.0,61,0.00,,,0.00,Weather View 32 v70,2013-05-26 13:07:00,
2013-05-26 09:12:00,64.0,49.8,30.14,North,0,3.0,10.0,60,0.00,,,0.00,Weather View 32 v70,2013-05-26 13:12:00,
2013-05-26 09:17:00,65.0,50.3,30.13,North,0,3.0,10.0,59,0.00,,,0.00,Weather View 32 v70,2013-05-26 13:17:00,
2013-05-26 09:22:00,65.0,50.3,30.13,ENE,68,5.0,10.0,59,0.00,,,0.00,Weather View 32 v70,2013-05-26 13:22:00,
2013-05-26 09:27:00,65.0,50.3,30.14,North,0,3.0,8.0,59,0.00,,,0.00,Weather View 32 v70,2013-05-26 13:27:00,
2013-05-26 09:32:00,65.0,49.8,30.14,North,0,3.0,8.0,58,0.00,,,0.00,Weather View 32 v70,2013-05-26 13:32:00,
2013-05-26 09:37:00,66.0,50.8,30.14,East,90,1.0,8.0,58,0.00,,,0.00,Weather View 32 v70,2013-05-26 13:37:00,
2013-05-26 09:42:00,66.0,50.8,30.14,WSW,248,1.0,8.0,58,0.00,,,0.00,Weather View 32 v70,2013-05-26 13:42:00,
2013-05-26 09:47:00,67.0,51.2,30.14,ENE,68,2.0,8.0,57,0.00,,,0.00,Weather View 32 v70,2013-05-26 13:47:00,
2013-05-26 09:52:00,67.0,50.7,30.14,East,90,2.0,8.0,56,0.00,,,0.00,Weather View 32 v70,2013-05-26 13:52:00,
2013-05-26 09:57:00,68.0,52.6,30.14,ENE,68,1.0,8.0,58,0.00,,,0.00,Weather View 32 v70,2013-05-26 13:57:00,
2013-05-26 10:02:00,68.0,51.7,30.14,East,90,3.0,8.0,56,0.00,,,0.00,Weather View 32 v70,2013-05-26 14:02:00,
2013-05-26 10:07:00,68.0,50.7,30.15,ENE,68,1.0,8.0,54,0.00,,,0.00,Weather View 32 v70,2013-05-26 14:07:00,
2013-05-26 10:12:00,68.0,50.7,30.14,East,90,3.0,7.0,54,0.00,,,0.00,Weather View 32 v70,2013-05-26 14:12:00,
2013-05-26 10:17:00,68.0,49.1,30.14,ENE,68,1.0,8.0,51,0.00,,,0.00,Weather View 32 v70,2013-05-26 14:17:00,
2013-05-26 10:22:00,68.0,50.2,30.14,East,90,3.0,8.0,53,0.00,,,0.00,Weather View 32 v70,2013-05-26 14:22:00,
2013-05-26 10:27:00,69.0,50.6,30.14,ENE,68,3.0,8.0,52,0.00,,,0.00,Weather View 32 v70,2013-05-26 14:27:00,
2013-05-26 10:32:00,69.0,48.4,30.14,ENE,68,9.0,10.0,48,0.00,,,0.00,Weather View 32 v70,2013-05-26 14:32:00,
2013-05-26 10:37:00,70.0,49.4,30.14,ENE,68,3.0,11.0,48,0.00,,,0.00,Weather View 32 v70,2013-05-26 14:37:00,
2013-05-26 10:42:00,69.0,47.3,30.14,East,90,1.0,11.0,46,0.00,,,0.00,Weather View 32 v70,2013-05-26 14:42:00,
2013-05-26 10:47:00,69.0,47.3,30.14,ENE,68,3.0,11.0,46,0.00,,,0.00,Weather View 32 v70,2013-05-26 14:47:00,
2013-05-26 10:52:00,69.0,48.4,30.14,ENE,68,3.0,11.0,48,0.00,,,0.00,Weather View 32 v70,2013-05-26 14:52:00,
2013-05-26 10:57:00,69.0,48.4,30.14,ENE,68,4.0,11.0,48,0.00,,,0.00,Weather View 32 v70,2013-05-26 14:57:00,
2013-05-26 11:02:00,69.0,47.9,30.14,ENE,68,2.0,11.0,47,0.00,,,0.00,Weather View 32 v70,2013-05-26 15:02:00,
2013-05-26 11:07:00,69.0,47.9,30.14,ENE,68,1.0,11.0,47,0.00,,,0.00,Weather View 32 v70,2013-05-26 15:07:00,
2013-05-26 11:12:00,69.0,47.9,30.14,East,90,4.0,11.0,47,0.00,,,0.00,Weather View 32 v70,2013-05-26 15:12:00,
2013-05-26 11:17:00,69.0,48.4,30.14,North,0,3.0,11.0,48,0.00,,,0.00,Weather View 32 v70,2013-05-26 15:17:00,
2013-05-26 11:22:00,69.0,48.4,30.14,North,0,1.0,11.0,48,0.00,,,0.00,Weather View 32 v70,2013-05-26 15:22:00,
2013-05-26 11:27:00,69.0,49.5,30.14,East,90,5.0,11.0,50,0.00,,,0.00,Weather View 32 v70,2013-05-26 15:27:00,
2013-05-26 11:32:00,69.0,48.4,30.14,East,90,4.0,11.0,48,0.00,,,0.00,Weather View 32 v70,2013-05-26 15:32:00,
2013-05-26 11:37:00,69.0,47.9,30.13,East,90,0.0,8.0,47,0.00,,,0.00,Weather View 32 v70,2013-05-26 15:37:00,
2013-05-26 11:42:00,69.0,47.9,30.13,ENE,68,3.0,8.0,47,0.00,,,0.00,Weather View 32 v70,2013-05-26 15:42:00,
2013-05-26 11:47:00,69.0,48.4,30.13,East,90,1.0,8.0,48,0.00,,,0.00,Weather View 32 v70,2013-05-26 15:47:00,
2013-05-26 11:52:00,69.0,47.3,30.13,ENE,68,5.0,8.0,46,0.00,,,0.00,Weather View 32 v70,2013-05-26 15:52:00,
2013-05-26 11:57:00,69.0,47.3,30.13,East,90,1.0,8.0,46,0.00,,,0.00,Weather View 32 v70,2013-05-26 15:57:00,
2013-05-26 12:02:00,70.0,48.8,30.13,West,270,4.0,8.0,47,0.00,,,0.00,Weather View 32 v70,2013-05-26 16:02:00,
2013-05-26 12:07:00,71.0,48.5,30.13,East,90,3.0,8.0,45,0.00,,,0.00,Weather View 32 v70,2013-05-26 16:07:00,
2013-05-26 12:12:00,72.0,48.2,30.13,North,0,5.0,8.0,43,0.00,,,0.00,Weather View 32 v70,2013-05-26 16:12:00,
2013-05-26 12:17:00,72.0,48.8,30.13,ENE,68,1.0,8.0,44,0.00,,,0.00,Weather View 32 v70,2013-05-26 16:17:00,
2013-05-26 12:22:00,72.0,46.9,30.13,North,0,3.0,8.0,41,0.00,,,0.00,Weather View 32 v70,2013-05-26 16:22:00,
2013-05-26 12:27:00,72.0,47.6,30.13,ENE,68,2.0,8.0,42,0.00,,,0.00,Weather View 32 v70,2013-05-26 16:27:00,
2013-05-26 12:32:00,73.0,46.5,30.13,East,90,2.0,8.0,39,0.00,,,0.00,Weather View 32 v70,2013-05-26 16:32:00,
2013-05-26 12:37:00,73.0,49.1,30.13,WSW,248,1.0,7.0,43,0.00,,,0.00,Weather View 32 v70,2013-05-26 16:37:00,
2013-05-26 12:42:00,72.0,47.6,30.13,East,90,2.0,6.0,42,0.00,,,0.00,Weather View 32 v70,2013-05-26 16:42:00,
2013-05-26 12:47:00,72.0,48.2,30.13,East,90,3.0,6.0,43,0.00,,,0.00,Weather View 32 v70,2013-05-26 16:47:00,
2013-05-26 12:52:00,72.0,46.9,30.13,East,90,0.0,6.0,41,0.00,,,0.00,Weather View 32 v70,2013-05-26 16:52:00,
2013-05-26 12:57:00,73.0,48.5,30.12,East,90,2.0,6.0,42,0.00,,,0.00,Weather View 32 v70,2013-05-26 16:57:00,
2013-05-26 13:02:00,74.0,47.4,30.12,East,90,0.0,6.0,39,0.00,,,0.00,Weather View 32 v70,2013-05-26 17:02:00,
2013-05-26 13:08:00,74.0,48.7,30.12,NNW,338,2.0,6.0,41,0.00,,,0.00,Weather View 32 v70,2013-05-26 17:08:00,
2013-05-26 13:13:00,74.0,48.7,30.12,NNW,338,2.0,6.0,41,0.00,,,0.00,Weather View 32 v70,2013-05-26 17:13:00,
2013-05-26 13:18:00,75.0,48.3,30.12,West,270,2.0,6.0,39,0.00,,,0.00,Weather View 32 v70,2013-05-26 17:18:00,
2013-05-26 13:23:00,76.0,49.2,30.12,West,270,3.0,6.0,39,0.00,,,0.00,Weather View 32 v70,2013-05-26 17:23:00,
2013-05-26 13:28:00,78.0,49.5,30.12,SSE,158,1.0,6.0,37,0.00,,,0.00,Weather View 32 v70,2013-05-26 17:28:00,
2013-05-26 13:33:00,80.0,50.6,30.12,East,90,1.0,6.0,36,0.00,,,0.00,Weather View 32 v70,2013-05-26 17:33:00,
2013-05-26 13:38:00,81.0,51.4,30.12,NNW,338,3.0,6.0,36,0.00,,,0.00,Weather View 32 v70,2013-05-26 17:38:00,
2013-05-26 13:43:00,81.0,51.4,30.11,ENE,68,1.0,6.0,36,0.00,,,0.00,Weather View 32 v70,2013-05-26 17:43:00,
2013-05-26 13:48:00,82.0,51.6,30.11,WSW,248,1.0,6.0,35,0.00,,,0.00,Weather View 32 v70,2013-05-26 17:48:00,
2013-05-26 13:53:00,82.0,50.0,30.11,West,270,0.0,6.0,33,0.00,,,0.00,Weather View 32 v70,2013-05-26 17:53:00,
2013-05-26 13:58:00,83.0,50.8,30.11,South,180,1.0,6.0,33,0.00,,,0.00,Weather View 32 v70,2013-05-26 17:58:00,
2013-05-26 14:03:00,84.0,50.9,30.11,West,270,5.0,9.0,32,0.00,,,0.00,Weather View 32 v70,2013-05-26 18:03:00,
2013-05-26 14:08:00,84.0,51.7,30.10,West,270,1.0,9.0,33,0.00,,,0.00,Weather View 32 v70,2013-05-26 18:08:00,
2013-05-26 14:13:00,85.0,51.7,30.09,WSW,248,4.0,9.0,32,0.00,,,0.00,Weather View 32 v70,2013-05-26 18:13:00,
2013-05-26 14:18:00,83.0,49.2,30.10,SSE,158,3.0,9.0,31,0.00,,,0.00,Weather View 32 v70,2013-05-26 18:18:00,
2013-05-26 14:23:00,83.0,52.4,30.09,NNW,338,3.0,9.0,35,0.00,,,0.00,Weather View 32 v70,2013-05-26 18:23:00,
2013-05-26 14:28:00,83.0,50.0,30.09,SSE,158,2.0,9.0,32,0.00,,,0.00,Weather View 32 v70,2013-05-26 18:28:00,
2013-05-26 14:33:00,84.0,50.9,30.09,ENE,68,3.0,9.0,32,0.00,,,0.00,Weather View 32 v70,2013-05-26 18:33:00,
2013-05-26 14:38:00,83.0,50.0,30.09,West,270,5.0,10.0,32,0.00,,,0.00,Weather View 32 v70,2013-05-26 18:38:00,
2013-05-26 14:43:00,82.0,51.6,30.08,NNW,338,2.0,10.0,35,0.00,,,0.00,Weather View 32 v70,2013-05-26 18:43:00,
2013-05-26 14:48:00,81.0,51.4,30.07,East,90,1.0,10.0,36,0.00,,,0.00,Weather View 32 v70,2013-05-26 18:48:00,
2013-05-26 14:53:00,80.0,49.0,30.08,West,270,2.0,10.0,34,0.00,,,0.00,Weather View 32 v70,2013-05-26 18:53:00,
2013-05-26 14:58:00,79.0,49.7,30.08,ENE,68,1.0,10.0,36,0.00,,,0.00,Weather View 32 v70,2013-05-26 18:58:00,
2013-05-26 15:03:00,78.0,50.3,30.07,East,90,1.0,10.0,38,0.00,,,0.00,Weather View 32 v70,2013-05-26 19:03:00,
2013-05-26 15:08:00,78.0,53.0,30.07,NNW,338,4.0,10.0,42,0.00,,,0.00,Weather View 32 v70,2013-05-26 19:08:00,
2013-05-26 15:13:00,78.0,50.3,30.07,NNW,338,3.0,10.0,38,0.00,,,0.00,Weather View 32 v70,2013-05-26 19:13:00,
2013-05-26 15:18:00,78.0,50.3,30.07,NNW,338,2.0,10.0,38,0.00,,,0.00,Weather View 32 v70,2013-05-26 19:18:00,
2013-05-26 15:23:00,78.0,51.0,30.07,West,270,7.0,10.0,39,0.00,,,0.00,Weather View 32 v70,2013-05-26 19:23:00,
2013-05-26 15:28:00,78.0,49.5,30.07,West,270,4.0,10.0,37,0.00,,,0.00,Weather View 32 v70,2013-05-26 19:28:00,
2013-05-26 15:33:00,78.0,52.3,30.06,WSW,248,3.0,10.0,41,0.00,,,0.00,Weather View 32 v70,2013-05-26 19:33:00,
2013-05-26 15:38:00,79.0,52.5,30.06,West,270,5.0,10.0,40,0.00,,,0.00,Weather View 32 v70,2013-05-26 19:38:00,
2013-05-26 15:43:00,79.0,50.4,30.06,NNW,338,6.0,10.0,37,0.00,,,0.00,Weather View 32 v70,2013-05-26 19:43:00,
2013-05-26 15:48:00,79.0,49.7,30.06,West,270,5.0,10.0,36,0.00,,,0.00,Weather View 32 v70,2013-05-26 19:48:00,
2013-05-26 15:53:00,79.0,50.4,30.06,ENE,68,1.0,10.0,37,0.00,,,0.00,Weather View 32 v70,2013-05-26 19:53:00,
2013-05-26 15:58:00,79.0,51.8,30.06,WSW,248,1.0,10.0,39,0.00,,,0.00,Weather View 32 v70,2013-05-26 19:58:00,
2013-05-26 16:03:00,79.0,51.1,30.05,NNW,338,3.0,10.0,38,0.00,,,0.00,Weather View 32 v70,2013-05-26 20:03:00,
2013-05-26 16:08:00,79.0,50.4,30.05,NNW,338,5.0,10.0,37,0.00,,,0.00,Weather View 32 v70,2013-05-26 20:08:00,
2013-05-26 16:13:00,79.0,52.5,30.05,NNW,338,2.0,10.0,40,0.00,,,0.00,Weather View 32 v70,2013-05-26 20:13:00,
2013-05-26 16:18:00,79.0,51.1,30.05,West,270,4.0,10.0,38,0.00,,,0.00,Weather View 32 v70,2013-05-26 20:18:00,
2013-05-26 16:23:00,79.0,51.1,30.05,West,270,3.0,10.0,38,0.00,,,0.00,Weather View 32 v70,2013-05-26 20:23:00,
2013-05-26 16:28:00,79.0,51.8,30.05,West,270,6.0,10.0,39,0.00,,,0.00,Weather View 32 v70,2013-05-26 20:28:00,
2013-05-26 16:33:00,79.0,51.8,30.04,WSW,248,3.0,10.0,39,0.00,,,0.00,Weather View 32 v70,2013-05-26 20:33:00,
2013-05-26 16:38:00,80.0,52.0,30.04,West,270,6.0,10.0,38,0.00,,,0.00,Weather View 32 v70,2013-05-26 20:38:00,
2013-05-26 16:43:00,79.0,49.7,30.04,West,270,2.0,9.0,36,0.00,,,0.00,Weather View 32 v70,2013-05-26 20:43:00,
2013-05-26 16:48:00,79.0,50.4,30.04,WSW,248,5.0,9.0,37,0.00,,,0.00,Weather View 32 v70,2013-05-26 20:48:00,
2013-05-26 16:53:00,79.0,50.4,30.04,WSW,248,5.0,9.0,37,0.00,,,0.00,Weather View 32 v70,2013-05-26 20:53:00,
2013-05-26 16:58:00,79.0,50.4,30.04,West,270,6.0,11.0,37,0.00,,,0.00,Weather View 32 v70,2013-05-26 20:58:00,
2013-05-26 17:03:00,79.0,51.1,30.04,North,0,1.0,11.0,38,0.00,,,0.00,Weather View 32 v70,2013-05-26 21:03:00,
2013-05-26 17:08:00,79.0,50.4,30.04,South,180,3.0,11.0,37,0.00,,,0.00,Weather View 32 v70,2013-05-26 21:08:00,
2013-05-26 17:13:00,79.0,50.4,30.04,NNW,338,7.0,12.0,37,0.00,,,0.00,Weather View 32 v70,2013-05-26 21:13:00,
2013-05-26 17:18:00,79.0,50.4,30.04,WSW,248,4.0,12.0,37,0.00,,,0.00,Weather View 32 v70,2013-05-26 21:18:00,
2013-05-26 17:23:00,78.0,51.6,30.04,WSW,248,3.0,12.0,40,0.00,,,0.00,Weather View 32 v70,2013-05-26 21:23:00,
2013-05-26 17:28:00,78.0,49.5,30.04,NNW,338,2.0,12.0,37,0.00,,,0.00,Weather View 32 v70,2013-05-26 21:28:00,
2013-05-26 17:33:00,78.0,51.6,30.04,WSW,248,7.0,12.0,40,0.00,,,0.00,Weather View 32 v70,2013-05-26 21:33:00,
2013-05-26 17:38:00,78.0,51.6,30.04,WSW,248,2.0,12.0,40,0.00,,,0.00,Weather View 32 v70,2013-05-26 21:38:00,
2013-05-26 20:00:00,74.0,55.7,30.04,East,90,0.0,0.0,53,0.00,,,0.00,Weather View 32 v70,2013-05-27 00:00:00,
2013-05-26 20:05:00,74.0,56.2,30.03,East,90,0.0,1.0,54,0.00,,,0.00,Weather View 32 v70,2013-05-27 00:05:00,
2013-05-26 20:10:00,74.0,55.7,30.04,SSE,158,0.0,1.0,53,0.00,,,0.00,Weather View 32 v70,2013-05-27 00:10:00,
2013-05-26 20:15:00,73.0,54.8,30.03,South,180,0.0,1.0,53,0.00,,,0.00,Weather View 32 v70,2013-05-27 00:15:00,
2013-05-26 20:20:00,73.0,55.8,30.04,SSE,158,0.0,1.0,55,0.00,,,0.00,Weather View 32 v70,2013-05-27 00:20:00,
2013-05-26 20:25:00,73.0,56.3,30.04,East,90,0.0,1.0,56,0.00,,,0.00,Weather View 32 v70,2013-05-27 00:25:00,
2013-05-26 20:30:00,72.0,56.4,30.04,East,90,0.0,1.0,58,0.00,,,0.00,Weather View 32 v70,2013-05-27 00:30:00,
2013-05-26 20:35:00,72.0,56.8,30.04,SSE,158,0.0,1.0,59,0.00,,,0.00,Weather View 32 v70,2013-05-27 00:35:00,
2013-05-26 20:40:00,71.0,56.4,30.04,East,90,0.0,1.0,60,0.00,,,0.00,Weather View 32 v70,2013-05-27 00:40:00,
2013-05-26 20:45:00,71.0,56.8,30.04,SSE,158,0.0,1.0,61,0.00,,,0.00,Weather View 32 v70,2013-05-27 00:45:00,
2013-05-26 20:50:00,71.0,57.3,30.04,East,90,0.0,1.0,62,0.00,,,0.00,Weather View 32 v70,2013-05-27 00:50:00,
2013-05-26 20:55:00,70.0,56.8,30.04,East,90,0.0,1.0,63,0.00,,,0.00,Weather View 32 v70,2013-05-27 00:55:00,
2013-05-26 21:00:00,70.0,57.2,30.04,East,90,0.0,1.0,64,0.00,,,0.00,Weather View 32 v70,2013-05-27 01:00:00,
2013-05-26 21:05:00,70.0,57.2,30.04,SSE,158,0.0,1.0,64,0.00,,,0.00,Weather View 32 v70,2013-05-27 01:05:00,
2013-05-26 21:10:00,70.0,57.2,30.04,SSE,158,0.0,1.0,64,0.00,,,0.00,Weather View 32 v70,2013-05-27 01:10:00,
2013-05-26 21:15:00,70.0,57.2,30.04,East,90,0.0,1.0,64,0.00,,,0.00,Weather View 32 v70,2013-05-27 01:15:00,
2013-05-26 21:20:00,69.0,56.7,30.04,East,90,0.0,1.0,65,0.00,,,0.00,Weather View 32 v70,2013-05-27 01:20:00,
2013-05-26 21:25:00,69.0,57.1,30.04,East,90,1.0,2.0,66,0.00,,,0.00,Weather View 32 v70,2013-05-27 01:25:00,
2013-05-26 21:30:00,69.0,57.1,30.04,East,90,0.0,2.0,66,0.00,,,0.00,Weather View 32 v70,2013-05-27 01:30:00,
2013-05-26 21:35:00,69.0,56.7,30.04,East,90,0.0,2.0,65,0.00,,,0.00,Weather View 32 v70,2013-05-27 01:35:00,
2013-05-26 21:40:00,69.0,58.0,30.04,East,90,0.0,2.0,68,0.00,,,0.00,Weather View 32 v70,2013-05-27 01:40:00,
2013-05-26 21:45:00,69.0,58.0,30.04,SSE,158,0.0,2.0,68,0.00,,,0.00,Weather View 32 v70,2013-05-27 01:45:00,
2013-05-26 21:50:00,68.0,57.8,30.04,East,90,0.0,2.0,70,0.00,,,0.00,Weather View 32 v70,2013-05-27 01:50:00,
2013-05-26 21:55:00,68.0,57.4,30.04,SSE,158,0.0,2.0,69,0.00,,,0.00,Weather View 32 v70,2013-05-27 01:55:00,
2013-05-26 22:00:00,68.0,57.8,30.05,East,90,0.0,2.0,70,0.00,,,0.00,Weather View 32 v70,2013-05-27 02:00:00,
2013-05-26 22:05:00,68.0,58.2,30.05,East,90,0.0,2.0,71,0.00,,,0.00,Weather View 32 v70,2013-05-27 02:05:00,
2013-05-26 22:10:00,67.0,57.6,30.05,SSE,158,0.0,2.0,72,0.00,,,0.00,Weather View 32 v70,2013-05-27 02:10:00,
2013-05-26 22:15:00,67.0,57.6,30.05,East,90,0.0,2.0,72,0.00,,,0.00,Weather View 32 v70,2013-05-27 02:15:00,
2013-05-26 22:20:00,67.0,57.6,30.05,East,90,0.0,2.0,72,0.00,,,0.00,Weather View 32 v70,2013-05-27 02:20:00,
2013-05-26 22:25:00,67.0,57.6,30.06,East,90,2.0,3.0,72,0.00,,,0.00,Weather View 32 v70,2013-05-27 02:25:00,
2013-05-26 22:30:00,67.0,58.4,30.06,East,90,1.0,3.0,74,0.00,,,0.00,Weather View 32 v70,2013-05-27 02:30:00,
2013-05-26 22:35:00,67.0,58.4,30.06,SSE,158,1.0,3.0,74,0.00,,,0.00,Weather View 32 v70,2013-05-27 02:35:00,
2013-05-26 22:40:00,66.0,57.4,30.06,SSE,158,0.0,3.0,74,0.00,,,0.00,Weather View 32 v70,2013-05-27 02:40:00,
2013-05-26 22:45:00,66.0,57.4,30.06,SSE,158,1.0,3.0,74,0.00,,,0.00,Weather View 32 v70,2013-05-27 02:45:00,
2013-05-26 22:50:00,66.0,57.1,30.06,East,90,0.0,3.0,73,0.00,,,0.00,Weather View 32 v70,2013-05-27 02:50:00,
2013-05-26 22:55:00,66.0,57.4,30.06,East,90,1.0,3.0,74,0.00,,,0.00,Weather View 32 v70,2013-05-27 02:55:00,
2013-05-26 23:00:00,66.0,57.8,30.06,East,90,0.0,3.0,75,0.00,,,0.00,Weather View 32 v70,2013-05-27 03:00:00,
2013-05-26 23:05:00,66.0,58.2,30.06,East,90,0.0,3.0,76,0.00,,,0.00,Weather View 32 v70,2013-05-27 03:05:00,
2013-05-26 23:10:00,66.0,58.6,30.06,East,90,0.0,3.0,77,0.00,,,0.00,Weather View 32 v70,2013-05-27 03:10:00,
2013-05-26 23:15:00,66.0,58.9,30.06,East,90,0.0,3.0,78,0.00,,,0.00,Weather View 32 v70,2013-05-27 03:15:00,
2013-05-26 23:20:00,66.0,58.9,30.06,SSE,158,0.0,3.0,78,0.00,,,0.00,Weather View 32 v70,2013-05-27 03:20:00,
2013-05-26 23:25:00,66.0,58.9,30.06,East,90,0.0,4.0,78,0.00,,,0.00,Weather View 32 v70,2013-05-27 03:25:00,
2013-05-26 23:30:00,66.0,58.9,30.06,East,90,0.0,4.0,78,0.00,,,0.00,Weather View 32 v70,2013-05-27 03:30:00,
2013-05-26 23:35:00,66.0,57.4,30.06,East,90,1.0,4.0,74,0.00,,,0.00,Weather View 32 v70,2013-05-27 03:35:00,
2013-05-26 23:40:00,66.0,57.1,30.06,South,180,1.0,4.0,73,0.00,,,0.00,Weather View 32 v70,2013-05-27 03:40:00,
2013-05-26 23:45:00,66.0,57.1,30.06,SSE,158,0.0,4.0,73,0.00,,,0.00,Weather View 32 v70,2013-05-27 03:45:00,
2013-05-26 23:50:00,66.0,56.7,30.06,South,180,2.0,4.0,72,0.00,,,0.00,Weather View 32 v70,2013-05-27 03:50:00,
2013-05-26 23:55:00,66.0,56.7,30.06,East,90,1.0,4.0,72,0.00,,,0.00,Weather View 32 v70,2013-05-27 03:55:00,